Regional Weather Roundup
Issued by NWS

Home | Current Version | Previous Version | Graphics & Text | Print | Product List | Glossary Off
Versions: 1 2 3 4 5 6 7 8 9 10 11 12 13 14 15 16 17 18 19 20 21 22 23 24 25 26 27 28 29 30 31 32 33 34 35 36 37 38 39 40 41 42 43 44 45 46 47 48 49 50

000
ASUS43 KTOP 010408
RWRKS

WEATHER ROUNDUP FOR KANSAS
NATIONAL WEATHER SERVICE GOODLAND KS
1100 PM CDT TUE MAY 31 2016

NOTE:  "FAIR" INDICATES FEW OR NO CLOUDS BELOW 12,000 FEET WITH NO
SIGNIFICANT WEATHER AND/OR OBSTRUCTIONS TO VISIBILITY.

KSZ001>006-013>018-027>032-041>047-010500-
NORTHWEST KANSAS

CITY           SKY/WX    TMP DP  RH WIND       PRES   REMARKS
GOODLAND       CLOUDY    56  49  77 SE6       30.10R
HAYS           CLEAR     63  52  67 NE7       30.05R
HILL CITY      CLEAR     61  53  75 CALM      30.06R
RUSSELL        CLEAR     64  58  80 N6        30.03R
$$

KSZ061>065-074>080-084>089-010500-
SOUTHWEST KANSAS

CITY           SKY/WX    TMP DP  RH WIND       PRES   REMARKS
DODGE CITY     CLEAR     60  58  92 N7        30.04R
ELKHART          N/A     62  53  72 E7          N/A
GARDEN CITY    CLOUDY    64  58  80 E9        30.06R
GREAT BEND     CLOUDY    64  55  72 NW8       30.02R
LIBERAL        PTCLDY    66  55  68 E8        30.05R
PRATT          CLOUDY    62  58  84 N7        30.00R
$$

KSZ066>073-081>083-090>101-010500-
SOUTHEAST KANSAS

CITY           SKY/WX    TMP DP  RH WIND       PRES   REMARKS
CHANUTE        CLOUDY    72  66  81 SE3       29.97R
COFFEYVILLE    LGT RAIN  69  65  86 W3        29.96R
HUTCHINSON     CLOUDY    67  61  81 NE6       29.99R
MEDICINE LODGE   N/A     65  61  87 N3        29.99R
NEWTON         CLEAR     64  57  77 NE3       30.01R
PARSONS        CLOUDY    69  65  86 CALM      29.98R
WICHITA INTL   PTCLDY    71  62  73 N7        29.98R
WICHITA JABRA  PTCLDY    65  62  90 N5        29.99R
WICHITA MCCONL PTCLDY    68  61  78 NE7       29.99R
WINFIELD       MOCLDY    71  66  84 SE3       29.98R
$$

KSZ007>012-019>026-033>040-048>060-102>105-010500-
NORTHEAST KANSAS

CITY           SKY/WX    TMP DP  RH WIND       PRES   REMARKS
CONCORDIA      CLEAR     64  57  78 W3        30.02R
EMPORIA        CLOUDY    67  62  84 N3        29.98R
LAWRENCE       PTCLDY    64  62  93 CALM      29.96R
MANHATTAN      CLEAR     64  60  87 CALM      29.98R
MARYSVILLE     CLEAR     63  59  88 N6        29.99F
OLATHE IND     PTCLDY    68  64  87 NW3       29.98R
OLATHE EXE     MOCLDY    68  63  84 CALM      29.97R
SALINA         CLEAR     66  62  87 NW6       30.00R
TOPEKA BILLARD   N/A     68  65  90 NW5       29.97R
TOPEKA FORBES  CLEAR     68  64  87 CALM      29.97R
$$




USA.gov is the U.S. government's official web portal to all federal, state and local government web resources and services.